This is the latest recevied weather packets stored in our database for station/object N9GKE-1. If no packets are shown the sender has not sent any weather packets the latest 1 day(s).
| Time | Temp. | Humidity | Pressure | Rain* | Wind** | Luminosity | Snow |
|---|---|---|---|---|---|---|---|
| 1778030350 | 8.89° C | 94% | 1008.6 hPa | 0.25 mm | - | - | - |
| 1778029750 | 8.89° C | 94% | 1008.5 hPa | 0.25 mm | - | - | - |
| 1778029296 | 8.89° C | 94% | 1008.6 hPa | 0.25 mm | - | - | - |
| 1778028695 | 8.89° C | 94% | 1008.7 hPa | 0.25 mm | - | - | - |
| 1778028550 | 8.89° C | 94% | 1008.7 hPa | 0.25 mm | - | - | - |
| 1778028094 | 8.89° C | 94% | 1008.7 hPa | 0.25 mm | - | - | - |
| 1778027950 | 8.89° C | 94% | 1008.6 hPa | 0 mm | - | - | - |
| 1778027496 | 8.89° C | 94% | 1008.7 hPa | 0 mm | - | - | - |
| 1778027350 | 8.89° C | 94% | 1008.6 hPa | 0.25 mm | - | - | - |
| 1778026894 | 8.89° C | 94% | 1008.6 hPa | 0.25 mm | - | - | - |
| 1778026751 | 8.89° C | 93% | 1008.7 hPa | 0.25 mm | - | - | - |
| 1778025695 | 8.89° C | 93% | 1008.8 hPa | 0.76 mm | - | - | - |
| 1778025095 | 8.89° C | 93% | 1008.8 hPa | 1.02 mm | - | - | - |
| 1778024496 | 8.89° C | 93% | 1008.7 hPa | 1.27 mm | - | - | - |
| 1778024351 | 8.89° C | 93% | 1008.7 hPa | 1.27 mm | - | - | - |
| 1778023296 | 8.89° C | 93% | 1008.3 hPa | 1.52 mm | - | - | - |
| 1778022095 | 8.89° C | 92% | 1008.6 hPa | 1.02 mm | - | - | - |
| 1778020895 | 8.89° C | 91% | 1008.3 hPa | 0.76 mm | - | - | - |
| 1778019695 | 8.89° C | 90% | 1008.8 hPa | 0.76 mm | - | - | - |
| 1778017895 | 8.89° C | 89% | 1009.2 hPa | 1.27 mm | - | - | - |
| 1778017295 | 8.89° C | 88% | 1009.3 hPa | 1.52 mm | - | - | - |
| 1778017151 | 8.89° C | 89% | 1009.3 hPa | 1.52 mm | - | - | - |
| 1778014298 | 9.44° C | 87% | 1009 hPa | 0.51 mm | - | - | - |
* Rain latest hour (hover to see other rain measurements)
** Current wind speed in m/s (hover to see current wind gust speed)